OBJECT AK, 57199

Orbit data source: Space-Track

You're viewing an Uncataloged Satellite

Recently launched and/or uncataloged satellites may have evolving metadata. Metadata may include but not limited to: Owner, Maufacturer, Bus, Motor, and Mission.

OBJECT AK, 57199 is a satellite in SSO that was launched on Tue, 27 Jun 2023 UTC via a SOYUZ-2-1B launch vehicle from the Vostochny Cosmodrome (VOSTO). Unknown objects in Earth's orbit typically refer to objects detected orbiting the Earth but have not yet been identified or cataloged. These objects could be anything from previously untracked satellites, spent rocket stages, debris from satellite collisions, or even natural meteoroids temporarily captured by Earth's gravity.

Loading next visibility...
Identifier
57199, 2023-091AK
Orbit
SSO
Country
Flag of TBDTBD
Related business
Manufacturer
Sputniks
Mission
Operational Commercial Communications
Bus & Motor
CUBESAT 3U?, Unknown motor
Mass
3 kg wet, 3 kg dry
Launch date (UTC)
2023-06-27 (3 years ago)
Launch vehicle
SOYUZ-2-1B
Launch site
Vostochny Cosmodrome (VOSTO)
Object type
Unknown
Shape & HBR
Box, 0.2 m
Radar Cross Section
0.035 m², Medium (>0.1 m² and < 1m²)

Expand to show TLE details & history
Last TLE update: 14 hours ago

TLE from 14 hours ago
0 OBJECT AK
1 57199U 23091AK  26207.57759136  .00021482  00000-0  53939-3 0  9995
2 57199  97.5066 279.0964 0004461 287.7352  72.3407 15.40010421170821
Epoch: 2026-07-26T13:51Z
TLE epoch observation values (Epoch: 2026-07-26T13:51:43.893Z)
Latitude
0.00002°
Longitude
126.88999°
Altitude
448.271 km
Speed
7.644 km/s
True Right ascension
18h 36m 23s
True Declination
0° 00' 00"
Sunlit
Object was in full shadow at epoch
Visualization orbit readout
Latitude
Unknown
Longitude
Unknown
Altitude
Unknown
Speed
Unknown
Apparent Right ascension
Unknown
Apparent Declination
Unknown
Sunlit
N/A
Visualization observer readout
Local Sidereal Time
17:04:37
Azimuth
Unknown
Elevation
Unknown
Doppler factor
Unknown
Orbital elements
Apogee altitude
446.065 km
Perigee altitude
439.979 km
Semi-major axis
6,821.159 km
Eccentricity
0.00045
Inclination
97.5066°
RAAN
279.0964°
Arg. of periapsis
287.7352°
True anomaly
72.38942°
Mean anomaly
72.3407°
Eccentric anomaly
72.36506°
Mean motion
3.85262 °/min
Orbital period
93.44 mins
BSTAR
0.00053939
Loading maneuver chart data...
Computing Atmospheric mass density...
Loading historical data...
Loading historical data...
Loading historical data...
Loading historical data...
Loading historical data...
Loading historical data...
Loading historical data...

Documentation

Showing up to 5 results
|